User: anonymous   Login
Location: Newark
(40.3500°N, 15.2333°E)
Time: 21:51:39
(UTC+00:00)
Language:

DX 1 - Orbit

View from above orbital plane
View from above orbital plane
View from above satellite
View from above satellite

Ground track
Ground track

The orbit data is extracted from the following two-line orbital elements,

1 40071U 14037C   20052.45885622  .00000079  00000-0  17656-4 0  9991
2 40071  98.4496 224.4324 0008953 144.9156 215.2652 14.81334991303934
Epoch (UTC): 21 February 2020 11:00:45
Eccentricity: 0.0008953
inclination: 98.4496°
perigee height: 619 km
apogee height: 631 km
right ascension of ascending node: 224.4324°
argument of perigee: 144.9156°
revolutions per day: 14.81334991
mean anomaly at epoch: 215.2652°
orbit number at epoch: 30393

The dashed part of the orbit path shows where the satellite is in the earth's shadow,  

DLR